AAY833 KBNA-KMDW

Flight info

Callsign AAY833
Flight time 1h 12m
Altitude 38000
Route KRSTA4 OLSIE DCT IIU DCT DROSE FISSK7
Aircraft A320/M-SDE3FGHIRWY/LB1

Departure

Time 2026-05-06 16:41
Airport Nashville International Airport (KBNA)

Arrival

Time 2026-05-06 17:53
Airport Chicago Midway International Airport (KMDW)
Time Latitude Longitude Altitude Speed Heading
2026-05-06 16:35 36.12813 -86.67136 579 ft 0 kts 308°
2026-05-06 16:36 36.12812 -86.67136 579 ft 0 kts 308°
2026-05-06 16:37 36.12823 -86.67152 579 ft 6 kts 308°
2026-05-06 16:37 36.12847 -86.67190 578 ft 0 kts 308°
2026-05-06 16:38 36.12847 -86.67191 578 ft 1 kts 308°
2026-05-06 16:38 36.12865 -86.67227 578 ft 9 kts 284°
2026-05-06 16:38 36.12827 -86.67303 578 ft 13 kts 221°
2026-05-06 16:38 36.12753 -86.67389 581 ft 16 kts 224°
2026-05-06 16:39 36.12663 -86.67361 585 ft 17 kts 133°
2026-05-06 16:39 36.12573 -86.67242 586 ft 22 kts 133°
2026-05-06 16:39 36.12457 -86.67092 586 ft 26 kts 134°
2026-05-06 16:39 36.12412 -86.67035 586 ft 0 kts 134°
2026-05-06 16:40 36.12387 -86.67030 586 ft 12 kts 200°
2026-05-06 16:40 36.12321 -86.67103 586 ft 14 kts 224°
2026-05-06 16:40 36.12324 -86.67183 587 ft 13 kts 314°
2026-05-06 16:40 36.12491 -86.67402 587 ft 71 kts 314°
2026-05-06 16:41 36.12993 -86.68050 580 ft 134 kts 313°
2026-05-06 16:41 36.13718 -86.68978 923 ft 158 kts 315°
2026-05-06 16:41 36.14477 -86.69997 1647 ft 166 kts 307°
2026-05-06 16:41 36.15257 -86.71099 2278 ft 173 kts 305°
2026-05-06 16:42 36.16081 -86.72293 2639 ft 193 kts 305°
2026-05-06 16:42 36.17002 -86.73640 2889 ft 218 kts 305°
2026-05-06 16:42 36.18091 -86.75121 3214 ft 247 kts 316°
2026-05-06 16:42 36.19736 -86.76026 3783 ft 276 kts 352°
2026-05-06 16:43 36.21691 -86.75673 4450 ft 295 kts 20°
2026-05-06 16:43 36.23494 -86.74475 5470 ft 295 kts 30°
2026-05-06 16:43 36.25256 -86.73148 6467 ft 297 kts 31°
2026-05-06 16:43 36.27022 -86.71792 7354 ft 301 kts 30°
2026-05-06 16:44 36.28807 -86.70407 8222 ft 306 kts 30°
2026-05-06 16:44 36.30627 -86.68986 9068 ft 311 kts 29°
2026-05-06 16:44 36.32473 -86.67540 9898 ft 317 kts 28°
2026-05-06 16:44 36.34381 -86.66047 10418 ft 335 kts 28°
2026-05-06 16:45 36.36419 -86.64452 10778 ft 356 kts 29°
2026-05-06 16:45 36.38543 -86.62783 11423 ft 365 kts 29°
2026-05-06 16:45 36.40707 -86.61081 12161 ft 372 kts 29°
2026-05-06 16:45 36.42908 -86.59348 12912 ft 377 kts 30°
2026-05-06 16:46 36.44615 -86.58005 13468 ft 381 kts 30°
2026-05-06 16:46 36.45771 -86.57094 13818 ft 385 kts 30°
2026-05-06 16:46 36.48043 -86.55304 14462 ft 389 kts 29°
2026-05-06 16:47 36.50346 -86.53486 15109 ft 394 kts 28°
2026-05-06 16:47 36.52657 -86.51659 15756 ft 398 kts 28°
2026-05-06 16:47 36.55010 -86.49802 16397 ft 403 kts 27°
2026-05-06 16:47 36.57394 -86.47938 17036 ft 406 kts 25°
2026-05-06 16:48 36.59927 -86.46418 17662 ft 404 kts 15°
2026-05-06 16:48 36.62541 -86.45081 18312 ft 408 kts 15°
2026-05-06 16:48 36.65174 -86.43738 18870 ft 411 kts 15°
2026-05-06 16:48 36.67848 -86.42420 19444 ft 413 kts 14°
2026-05-06 16:49 36.70520 -86.41086 20041 ft 417 kts 15°
2026-05-06 16:49 36.73194 -86.39626 20646 ft 421 kts 17°
2026-05-06 16:49 36.75846 -86.38035 21224 ft 425 kts 19°
2026-05-06 16:49 36.78480 -86.36342 21811 ft 428 kts 20°
2026-05-06 16:50 36.81118 -86.34586 22373 ft 431 kts 20°
2026-05-06 16:50 36.83762 -86.32808 22937 ft 433 kts 20°
2026-05-06 16:50 36.86424 -86.31028 23477 ft 435 kts 20°
2026-05-06 16:50 36.89110 -86.29253 23953 ft 437 kts 19°
2026-05-06 16:51 36.91813 -86.27488 24390 ft 439 kts 19°
2026-05-06 16:51 36.94531 -86.25730 24831 ft 441 kts 19°
2026-05-06 16:51 36.97268 -86.23964 25265 ft 443 kts 19°
2026-05-06 16:51 37.00012 -86.22194 25703 ft 445 kts 19°
2026-05-06 16:52 37.02772 -86.20410 26123 ft 447 kts 19°
2026-05-06 16:52 37.05542 -86.18610 26549 ft 450 kts 19°
2026-05-06 16:52 37.08325 -86.16799 26971 ft 452 kts 19°
2026-05-06 16:52 37.11116 -86.14981 27395 ft 454 kts 19°
2026-05-06 16:53 37.13924 -86.13147 27796 ft 456 kts 19°
2026-05-06 16:53 37.16741 -86.11300 28205 ft 458 kts 19°
2026-05-06 16:53 37.19571 -86.09439 28591 ft 461 kts 19°
2026-05-06 16:53 37.22418 -86.07570 28978 ft 463 kts 19°
2026-05-06 16:54 37.25294 -86.05751 29358 ft 463 kts 17°
2026-05-06 16:54 37.28215 -86.04049 29728 ft 463 kts 15°
2026-05-06 16:54 37.31172 -86.02425 30090 ft 464 kts 14°
2026-05-06 16:54 37.34154 -86.00834 30401 ft 466 kts 14°
2026-05-06 16:55 37.37141 -85.99235 30719 ft 468 kts 14°
2026-05-06 16:55 37.40131 -85.97608 31042 ft 469 kts 14°
2026-05-06 16:55 37.43122 -85.95949 31366 ft 471 kts 14°
2026-05-06 16:55 37.46113 -85.94265 31739 ft 470 kts 14°
2026-05-06 16:56 37.49087 -85.92574 32205 ft 468 kts 14°
2026-05-06 16:56 37.52041 -85.90886 32685 ft 465 kts 14°
2026-05-06 16:56 37.54980 -85.89210 33153 ft 462 kts 14°
2026-05-06 16:56 37.57902 -85.87551 33637 ft 459 kts 13°
2026-05-06 16:57 37.60810 -85.85908 34105 ft 456 kts 13°
2026-05-06 16:57 37.63697 -85.84282 34503 ft 454 kts 12°
2026-05-06 16:57 37.66578 -85.82662 34873 ft 452 kts 12°
2026-05-06 16:57 37.69443 -85.81050 35222 ft 450 kts 12°
2026-05-06 16:58 37.72301 -85.79435 35551 ft 449 kts 12°
2026-05-06 16:58 37.75149 -85.77821 35852 ft 448 kts 12°
2026-05-06 16:58 37.77990 -85.76205 36148 ft 448 kts 12°
2026-05-06 16:58 37.80828 -85.74591 36458 ft 446 kts 12°
2026-05-06 16:59 37.83654 -85.72983 36754 ft 445 kts 12°
2026-05-06 16:59 37.86476 -85.71380 37046 ft 444 kts 11°
2026-05-06 16:59 37.89293 -85.69780 37332 ft 443 kts 11°
2026-05-06 16:59 37.92100 -85.68183 37614 ft 442 kts 11°
2026-05-06 17:00 37.94904 -85.66581 37889 ft 442 kts 11°
2026-05-06 17:00 37.97706 -85.64981 37994 ft 441 kts 11°
2026-05-06 17:00 38.00505 -85.63380 38030 ft 441 kts 11°
2026-05-06 17:01 38.06094 -85.60202 38029 ft 437 kts
2026-05-06 17:01 38.08892 -85.59061 38029 ft 421 kts 359°
2026-05-06 17:01 38.11729 -85.58529 38027 ft 405 kts 350°
2026-05-06 17:01 38.14494 -85.58571 38026 ft 391 kts 341°
2026-05-06 17:02 38.17154 -85.59049 38027 ft 386 kts 339°
2026-05-06 17:02 38.22466 -85.60079 38037 ft 386 kts 339°
2026-05-06 17:03 38.27785 -85.61097 38035 ft 387 kts 339°
2026-05-06 17:03 38.33106 -85.62114 38029 ft 387 kts 339°
2026-05-06 17:04 38.38432 -85.63136 38018 ft 387 kts 339°
2026-05-06 17:04 38.43753 -85.64168 38023 ft 387 kts 339°
2026-05-06 17:05 38.49085 -85.65206 38009 ft 388 kts 339°
2026-05-06 17:05 38.54427 -85.66241 38005 ft 388 kts 339°
2026-05-06 17:06 38.59778 -85.67276 38034 ft 389 kts 339°
2026-05-06 17:06 38.65138 -85.68310 38040 ft 390 kts 339°
2026-05-06 17:07 38.68934 -85.69048 38037 ft 390 kts 339°
2026-05-06 17:07 38.74308 -85.70102 38034 ft 391 kts 339°
2026-05-06 17:08 38.79695 -85.71156 38034 ft 392 kts 339°
2026-05-06 17:08 38.85087 -85.72211 38027 ft 392 kts 339°
2026-05-06 17:09 38.90492 -85.73272 38029 ft 393 kts 339°
2026-05-06 17:09 38.95031 -85.74159 38033 ft 394 kts 339°
2026-05-06 17:10 38.99771 -85.75093 38031 ft 394 kts 339°
2026-05-06 17:10 39.05202 -85.76158 38040 ft 395 kts 339°
2026-05-06 17:11 39.10645 -85.77232 38047 ft 396 kts 339°
2026-05-06 17:11 39.16096 -85.78303 38052 ft 397 kts 339°
2026-05-06 17:12 39.21557 -85.79379 38055 ft 397 kts 339°
2026-05-06 17:12 39.27026 -85.80456 38055 ft 398 kts 338°
2026-05-06 17:13 39.32498 -85.81544 38056 ft 398 kts 338°
2026-05-06 17:13 39.37977 -85.82635 38055 ft 398 kts 338°
2026-05-06 17:14 39.43461 -85.83723 38049 ft 399 kts 339°
2026-05-06 17:14 39.48912 -85.84807 38052 ft 399 kts 338°
2026-05-06 17:15 39.53519 -85.85726 38056 ft 400 kts 339°
2026-05-06 17:15 39.59917 -85.86998 38053 ft 401 kts 339°
2026-05-06 17:16 39.65431 -85.88097 38051 ft 401 kts 339°
2026-05-06 17:16 39.70951 -85.89199 38054 ft 401 kts 339°
2026-05-06 17:17 39.75575 -85.90125 38053 ft 401 kts 338°
2026-05-06 17:17 39.81095 -85.91241 38054 ft 401 kts 338°
2026-05-06 17:18 39.86621 -85.92356 38048 ft 402 kts 338°
2026-05-06 17:18 39.92143 -85.93471 38049 ft 402 kts 338°
2026-05-06 17:19 39.97670 -85.94588 37999 ft 403 kts 338°
2026-05-06 17:19 40.00424 -85.95148 36865 ft 410 kts 338°
2026-05-06 17:19 40.03282 -85.95743 35302 ft 422 kts 338°
2026-05-06 17:19 40.06194 -85.96343 34136 ft 425 kts 338°
2026-05-06 17:20 40.09115 -85.96932 32949 ft 425 kts 338°
2026-05-06 17:20 40.12029 -85.97509 31867 ft 423 kts 339°
2026-05-06 17:20 40.14939 -85.98075 31317 ft 409 kts 338°
2026-05-06 17:20 40.17662 -85.98597 30858 ft 394 kts 338°
2026-05-06 17:21 40.20333 -85.99115 30395 ft 381 kts 337°
2026-05-06 17:21 40.22910 -85.99627 29962 ft 369 kts 337°
2026-05-06 17:21 40.25420 -86.00141 29528 ft 363 kts 337°
2026-05-06 17:21 40.27902 -86.00661 29115 ft 359 kts 337°
2026-05-06 17:22 40.30361 -86.01177 28719 ft 357 kts 337°
2026-05-06 17:22 40.32802 -86.01689 28329 ft 354 kts 337°
2026-05-06 17:22 40.35232 -86.02195 27937 ft 352 kts 338°
2026-05-06 17:22 40.37647 -86.02692 27544 ft 350 kts 338°
2026-05-06 17:23 40.40047 -86.03184 27100 ft 348 kts 338°
2026-05-06 17:23 40.42435 -86.03673 26696 ft 346 kts 338°
2026-05-06 17:23 40.44804 -86.04160 26294 ft 344 kts 338°
2026-05-06 17:23 40.47163 -86.04646 25892 ft 342 kts 338°
2026-05-06 17:24 40.49510 -86.05128 25472 ft 341 kts 338°
2026-05-06 17:24 40.51849 -86.05608 25048 ft 340 kts 339°
2026-05-06 17:24 40.54258 -86.05786 24581 ft 353 kts 349°
2026-05-06 17:24 40.56721 -86.05731 24087 ft 355 kts 349°
2026-05-06 17:25 40.59195 -86.05669 23589 ft 357 kts 349°
2026-05-06 17:25 40.61679 -86.05606 22999 ft 357 kts 349°
2026-05-06 17:25 40.64160 -86.05544 22512 ft 357 kts 350°
2026-05-06 17:25 40.65198 -86.05516 22307 ft 356 kts 350°
2026-05-06 17:26 40.67677 -86.05448 21828 ft 356 kts 350°
2026-05-06 17:26 40.70143 -86.05394 21360 ft 355 kts 350°
2026-05-06 17:26 40.72619 -86.05344 20876 ft 355 kts 351°
2026-05-06 17:26 40.75092 -86.05294 20401 ft 355 kts 351°
2026-05-06 17:27 40.77565 -86.05239 19926 ft 356 kts 352°
2026-05-06 17:27 40.80041 -86.05179 19453 ft 357 kts 352°
2026-05-06 17:27 40.82525 -86.05124 18967 ft 357 kts 352°
2026-05-06 17:27 40.85017 -86.05071 18588 ft 358 kts 350°
2026-05-06 17:28 40.87524 -86.05021 18003 ft 362 kts 352°
2026-05-06 17:28 40.90045 -86.04966 17512 ft 362 kts 352°
2026-05-06 17:28 40.92517 -86.05169 17050 ft 348 kts 338°
2026-05-06 17:28 40.94687 -86.06323 16614 ft 327 kts 319°
2026-05-06 17:29 40.96359 -86.08228 16208 ft 310 kts 301°
2026-05-06 17:29 40.97444 -86.10602 15807 ft 297 kts 285°
2026-05-06 17:29 40.98065 -86.13170 15437 ft 292 kts 281°
2026-05-06 17:29 40.98649 -86.15734 15072 ft 290 kts 282°
2026-05-06 17:30 40.99231 -86.18281 14701 ft 289 kts 282°
2026-05-06 17:30 40.99814 -86.20818 14342 ft 287 kts 282°
2026-05-06 17:30 41.00390 -86.23349 13985 ft 287 kts 282°
2026-05-06 17:30 41.00963 -86.25867 13593 ft 286 kts 282°
2026-05-06 17:31 41.01533 -86.28376 13213 ft 284 kts 283°
2026-05-06 17:31 41.02102 -86.30868 12849 ft 281 kts 283°
2026-05-06 17:31 41.02657 -86.33304 12488 ft 279 kts 283°
2026-05-06 17:31 41.03222 -86.35791 12122 ft 277 kts 284°
2026-05-06 17:32 41.03776 -86.38228 11756 ft 276 kts 284°
2026-05-06 17:32 41.04326 -86.40651 11390 ft 274 kts 284°
2026-05-06 17:32 41.04884 -86.43025 11024 ft 273 kts 288°
2026-05-06 17:32 41.05742 -86.45264 10854 ft 270 kts 296°
2026-05-06 17:33 41.06642 -86.47430 10752 ft 268 kts 295°
2026-05-06 17:33 41.07530 -86.49602 10618 ft 267 kts 295°
2026-05-06 17:33 41.08409 -86.51765 10500 ft 267 kts 295°
2026-05-06 17:33 41.09289 -86.53934 10374 ft 266 kts 295°
2026-05-06 17:34 41.10164 -86.56092 10246 ft 266 kts 295°
2026-05-06 17:34 41.11041 -86.58249 10121 ft 265 kts 295°
2026-05-06 17:34 41.11915 -86.60398 9996 ft 264 kts 296°
2026-05-06 17:34 41.12985 -86.62379 9865 ft 266 kts 310°
2026-05-06 17:35 41.14366 -86.64020 9729 ft 268 kts 315°
2026-05-06 17:35 41.15783 -86.65628 9603 ft 267 kts 315°
2026-05-06 17:35 41.17189 -86.67230 9469 ft 267 kts 315°
2026-05-06 17:36 41.20004 -86.70449 9222 ft 267 kts 315°
2026-05-06 17:36 41.21408 -86.72060 9097 ft 266 kts 315°
2026-05-06 17:36 41.22807 -86.73665 8967 ft 266 kts 315°
2026-05-06 17:36 41.24210 -86.75275 8843 ft 266 kts 315°
2026-05-06 17:37 41.25606 -86.76879 8717 ft 266 kts 315°
2026-05-06 17:37 41.27004 -86.78486 8603 ft 265 kts 315°
2026-05-06 17:37 41.28399 -86.80087 8457 ft 265 kts 315°
2026-05-06 17:37 41.29793 -86.81686 8338 ft 264 kts 316°
2026-05-06 17:38 41.31186 -86.83284 8224 ft 264 kts 315°
2026-05-06 17:38 41.32574 -86.84879 8084 ft 264 kts 315°
2026-05-06 17:38 41.33959 -86.86472 7966 ft 263 kts 315°
2026-05-06 17:38 41.35341 -86.88071 7843 ft 263 kts 315°
2026-05-06 17:39 41.36719 -86.89662 7722 ft 262 kts 316°
2026-05-06 17:39 41.38097 -86.91253 7600 ft 262 kts 316°
2026-05-06 17:39 41.39472 -86.92840 7472 ft 261 kts 316°
2026-05-06 17:39 41.40839 -86.94433 7351 ft 261 kts 315°
2026-05-06 17:40 41.42183 -86.96051 7226 ft 260 kts 314°
2026-05-06 17:40 41.43515 -86.97676 7099 ft 260 kts 314°
2026-05-06 17:40 41.44842 -86.99304 6976 ft 259 kts 314°
2026-05-06 17:40 41.45995 -87.01120 6854 ft 255 kts 300°
2026-05-06 17:41 41.46819 -87.03208 6734 ft 254 kts 295°
2026-05-06 17:41 41.47609 -87.05313 6620 ft 254 kts 295°
2026-05-06 17:41 41.48403 -87.07415 6495 ft 254 kts 295°
2026-05-06 17:41 41.49196 -87.09513 6373 ft 254 kts 295°
2026-05-06 17:42 41.49979 -87.11583 6248 ft 253 kts 295°
2026-05-06 17:42 41.50774 -87.13688 6123 ft 253 kts 295°
2026-05-06 17:42 41.51572 -87.15817 6004 ft 254 kts 293°
2026-05-06 17:42 41.52213 -87.17971 6005 ft 254 kts 290°
2026-05-06 17:43 41.52869 -87.20191 6005 ft 254 kts 290°
2026-05-06 17:43 41.53509 -87.22349 6004 ft 254 kts 290°
2026-05-06 17:43 41.54156 -87.24539 6007 ft 254 kts 290°
2026-05-06 17:43 41.54802 -87.26734 6012 ft 254 kts 290°
2026-05-06 17:44 41.55447 -87.28934 6010 ft 254 kts 290°
2026-05-06 17:44 41.56090 -87.31133 6015 ft 255 kts 290°
2026-05-06 17:44 41.56734 -87.33334 6015 ft 255 kts 290°
2026-05-06 17:44 41.57379 -87.35536 6013 ft 255 kts 290°
2026-05-06 17:45 41.58025 -87.37742 6015 ft 255 kts 290°
2026-05-06 17:45 41.58673 -87.39950 5877 ft 256 kts 290°
2026-05-06 17:45 41.59319 -87.42157 5700 ft 255 kts 290°
2026-05-06 17:45 41.59960 -87.44351 5519 ft 248 kts 290°
2026-05-06 17:46 41.60572 -87.46443 5376 ft 237 kts 290°
2026-05-06 17:46 41.61165 -87.48474 5212 ft 233 kts 290°
2026-05-06 17:46 41.61754 -87.50492 5075 ft 233 kts 290°
2026-05-06 17:46 41.62443 -87.52454 5023 ft 234 kts 302°
2026-05-06 17:47 41.63457 -87.54148 4844 ft 232 kts 311°
2026-05-06 17:47 41.64568 -87.55698 4549 ft 230 kts 312°
2026-05-06 17:47 41.65683 -87.57238 4231 ft 230 kts 312°
2026-05-06 17:47 41.66777 -87.58761 3912 ft 223 kts 311°
2026-05-06 17:48 41.67828 -87.60229 3622 ft 214 kts 312°
2026-05-06 17:48 41.68844 -87.61649 3319 ft 209 kts 312°
2026-05-06 17:48 41.69835 -87.63034 3032 ft 202 kts 312°
2026-05-06 17:48 41.70757 -87.64323 2788 ft 181 kts 311°
2026-05-06 17:49 41.70805 -87.64390 2774 ft 180 kts 311°
2026-05-06 17:50 41.71469 -87.65305 2646 ft 161 kts 311°
2026-05-06 17:51 41.72198 -87.66333 2406 ft 146 kts 311°
2026-05-06 17:51 41.72874 -87.67283 2180 ft 136 kts 310°
2026-05-06 17:51 41.73513 -87.68181 1987 ft 132 kts 311°
2026-05-06 17:51 41.74140 -87.69062 1810 ft 130 kts 311°
2026-05-06 17:52 41.74768 -87.69943 1622 ft 129 kts 310°
2026-05-06 17:52 41.75395 -87.70823 1432 ft 130 kts 310°
2026-05-06 17:52 41.76021 -87.71703 1240 ft 131 kts 310°
2026-05-06 17:52 41.76650 -87.72590 1062 ft 132 kts 310°
2026-05-06 17:53 41.77285 -87.73482 881 ft 132 kts 309°
2026-05-06 17:53 41.77919 -87.74369 691 ft 132 kts 311°
2026-05-06 17:53 41.78526 -87.75210 626 ft 108 kts 307°
2026-05-06 17:53 41.78825 -87.75648 619 ft 23 kts 317°
2026-05-06 17:54 41.78970 -87.75783 623 ft 32 kts 340°
2026-05-06 17:54 41.79098 -87.75827 622 ft 23 kts 352°
2026-05-06 17:54 41.79121 -87.75707 626 ft 19 kts 92°
2026-05-06 17:54 41.79105 -87.75567 622 ft 17 kts 130°
2026-05-06 17:55 41.78967 -87.75413 631 ft 34 kts 142°
2026-05-06 17:55 41.78773 -87.75156 615 ft 41 kts 134°
2026-05-06 17:55 41.78612 -87.74922 627 ft 21 kts 131°
2026-05-06 17:55 41.78552 -87.74793 624 ft 10 kts 62°
2026-05-06 17:56 41.78555 -87.74711 631 ft 11 kts 132°
2026-05-06 17:56 41.78472 -87.74599 628 ft 16 kts 135°
2026-05-06 17:56 41.78509 -87.74509 627 ft 18 kts 41°
2026-05-06 17:56 41.78616 -87.74375 620 ft 17 kts 43°
2026-05-06 17:57 41.78627 -87.74362 626 ft 0 kts 43°
2026-05-06 17:57 41.78616 -87.74312 630 ft 4 kts 152°
2026-05-06 17:57 41.78598 -87.74291 623 ft 3 kts 132°
2026-05-06 17:57 41.78597 -87.74290 623 ft 0 kts 132°